TimeMST,TemperatureF,Dew PointF,Humidity,Sea Level PressureIn,VisibilityMPH,Wind Direction,Wind SpeedMPH,Gust SpeedMPH,PrecipitationIn,Events,Conditions,WindDirDegrees,DateUTC
12:53 AM,36.0,28.9,76,30.04,10.0,South,5.8,-,N/A,,Unknown,190,2012-11-19 07:53:00
1:53 AM,36.0,27.0,70,30.03,10.0,South,8.1,-,N/A,,Unknown,170,2012-11-19 08:53:00
2:53 AM,35.1,26.1,70,30.03,10.0,East,5.8,-,N/A,,Unknown,90,2012-11-19 09:53:00
3:53 AM,37.9,26.1,62,30.02,10.0,South,10.4,-,N/A,,Unknown,180,2012-11-19 10:53:00
5:53 AM,33.1,23.0,66,30.04,10.0,Variable,3.5,-,N/A,,Unknown,0,2012-11-19 12:53:00
6:53 AM,28.9,23.0,78,30.07,10.0,North,5.8,-,N/A,,Unknown,350,2012-11-19 13:53:00
7:53 AM,30.0,23.0,75,30.09,-9999.0,Calm,Calm,-,N/A,,Unknown,0,2012-11-19 14:53:00
8:53 AM,35.1,26.1,70,30.10,10.0,SW,3.5,-,N/A,,Unknown,220,2012-11-19 15:53:00
9:53 AM,43.0,28.0,56,30.08,10.0,SW,3.5,-,N/A,,Unknown,220,2012-11-19 16:53:00
10:53 AM,44.1,28.9,55,30.08,10.0,SSE,5.8,-,N/A,,Unknown,150,2012-11-19 17:53:00
11:53 AM,48.9,28.0,44,30.06,10.0,East,4.6,-,N/A,,Unknown,100,2012-11-19 18:53:00
12:53 PM,50.0,27.0,41,30.04,10.0,Calm,Calm,-,N/A,,Unknown,0,2012-11-19 19:53:00
1:53 PM,52.0,28.0,40,30.04,10.0,Calm,Calm,-,N/A,,Unknown,0,2012-11-19 20:53:00
2:53 PM,51.1,27.0,39,30.03,10.0,Calm,Calm,-,N/A,,Unknown,0,2012-11-19 21:53:00
3:53 PM,46.9,28.9,50,30.04,10.0,West,4.6,-,N/A,,Unknown,260,2012-11-19 22:53:00
4:53 PM,44.1,28.0,53,30.06,10.0,Calm,Calm,-,N/A,,Unknown,0,2012-11-19 23:53:00
5:53 PM,39.0,27.0,62,30.10,10.0,West,4.6,-,N/A,,Unknown,270,2012-11-20 00:53:00
6:53 PM,39.9,24.1,53,30.10,10.0,WSW,8.1,-,N/A,,Unknown,250,2012-11-20 01:53:00
7:53 PM,39.9,23.0,51,30.08,10.0,WSW,6.9,-,N/A,,Unknown,250,2012-11-20 02:53:00
8:53 PM,43.0,21.9,43,30.06,10.0,SSW,6.9,-,N/A,,Unknown,200,2012-11-20 03:53:00
9:53 PM,41.0,21.9,47,30.01,10.0,West,8.1,-,N/A,,Unknown,270,2012-11-20 04:53:00
10:53 PM,39.0,21.0,49,29.99,10.0,WNW,8.1,-,N/A,,Unknown,290,2012-11-20 05:53:00
11:53 PM,39.0,21.9,50,29.98,10.0,Calm,Calm,-,N/A,,Unknown,0,2012-11-20 06:53:00